Location: Famechon
(49.7599°N, 2.0615°E)
Time: 07:10:02
(UTC+00:00)

Cosmos 44 Rocket - Pass Details

Date: 03 February 2023
Orbit: 646 x 741 km, 65.1° (Epoch: 22 March)

Event Time Altitude Azimuth Distance (km) Brightness Sun altitude
Rises 19:44:54 0° 220° (SW) 2,959 7.0 -28.4°
Reaches altitude 10° 19:47:10 10° 221° (SW) 2,059 6.1 -28.8°
Enters shadow 19:49:53 35° 226° (SW) 1,058 4.4 -29.2°
